AirNav   Air Wisconsin Up To $57,000 Bonus
 
 1199 users online  

KSEQ Randolph Air Force Base Auxiliary Field
Seguin, Texas, USA

GOING TO SEGUIN?


FAA INFORMATION EFFECTIVE 02 JANUARY 2020

Location

FAA Identifier: SEQ
Lat/Long: 29-33-56.8290N 097-54-30.0120W
29-33.947150N 097-54.500200W
29.5657858,-97.9083367
(estimated)
Elevation: 525 ft. / 160 m (estimated)
Variation: 07E (1985)
From city: 3 miles E of SEGUIN, TX
Time zone: UTC -6 (UTC -5 during Daylight Saving Time)
Zip code: 78155

Airport Operations

Airport use: Private use. Permission required prior to landing
Activation date: 07/1941
Control tower: no
ARTCC: HOUSTON CENTER
FSS: SAN ANGELO FLIGHT SERVICE STATION
Attendance: MON-FRI SR-SS
CLSD WKND AND FED HOLS.
Segmented circle: no

Airport Communications

CTAF: 122.975
WX ASOS at BAZ (11 nm NW): 119.325 (830-629-7979)
WX AWOS-3PT at HYI (20 nm N): PHONE 512-353-8005

Nearby radio navigation aids

VOR radial/distance  VOR name  Freq  Var
RNDr077/19.9RANDOLPH VORTAC112.3005E
SATr091/29.2SAN ANTONIO VORTAC116.8008E
SSFr048/(33.5)STINSON VOR108.4009E

Airport Services

Oil available: UHF 271.2.
Airframe service: NONE
Powerplant service: NONE
Bottled oxygen: NONE
Bulk oxygen: NONE

Runway Information

Runway 13/31

Dimensions: 8350 x 150 ft. / 2545 x 46 m
Surface: asphalt
Weight bearing capacity: 
PCN 26 /F/B/W/T
RUNWAY 13  RUNWAY 31
Traffic pattern: leftleft
Runway end identifier lights: nono

Airport Ownership and Management from official FAA records

Ownership: U.S. Air Force
Owner: U.S. AIR FORCE
RANDOLPH AFB
UNIVERSITY CITY, TX 78148
Manager: COMMANDING OFFICER
RANDOLPH AFB
UNIVERSITY CITY, TX 78148

Additional Remarks

CAUTION: AFLD UNLGTD. RWY 13-31 SHOULDERS UNPAVED. TWY A SHOULDERS UNPAVED.
MISC: NO ACFT RCVR AVAIL. AFLD NOT EQUIPPED TO SUPPORT ACFT WITH HYDRAZINE, HAZ CARGO, LIVE ORDNANCE OR ANY AFCT RQR CSTMS/AG/IMG.
MISC: NO FUEL, FLUID, OR OIL SVCS AVBL.
SERVICE-A-GEAR: MA1A ARRESTING SYSTEM 150 FT INTO EACH DEP END OVRN.
12 FTW ACFT USE ONLY, OFFL BUS ONLY. AFLD MGMT, DSN 487-8160 OR C210-652-8160, MUST APV OTHER OPS. GND SVC UNAVBL. NO TRAN ALERT OR MAINT SVC. LTD FIREFIGHTING CAPABILITY.
ACFT TRSNG THRU A-638 BLO 3000 FT MSL, CTC RY SUPERVISORY UNIT (CALL SIGN CHARLIE BROWN) WITH PSN AND ALT; CHARLIE BROWN - 122.975, 271.2.
FOR CD CTC SAN ANTONIO APCH AT 210-805-5516.

Instrument Procedures

There are no published instrument procedures at KSEQ.

Some nearby airports with instrument procedures:

KBAZ - New Braunfels Regional Airport (11 nm NW)
KRND - Randolph Air Force Base (19 nm W)
KHYI - San Marcos Regional Airport (20 nm N)
50R - Lockhart Municipal Airport (21 nm NE)
KSAT - San Antonio International Airport (29 nm W)
 
Loc | Ops | Rwys | IFR | FBO | Links
Com | Nav | Svcs | Stats | Notes
Area around KSEQ (Randolph Air Force Base Auxiliary Field)
 
Road maps at: MapQuest Bing Google
 
Aerial photo
No photo
 
Sectional chart

 
Airport distance calculator
Flying to Randolph Air Force Base Auxiliary Field? Find the distance to fly.

From to KSEQ

Sunrise and sunset
Times for 26-Jan-2020
 Local
(UTC-6)
 Zulu
(UTC)
Morning civil twilight07:0013:00
Sunrise07:2513:25
Sunset18:0300:03
Evening civil twilight18:2800:28

Current date and time
Zulu (UTC)  26-Jan-2020 17:51:29
Local (UTC-6)  26-Jan-2020 11:51:29
 
METAR
KSEQ 261658Z AUTO 34006KT 9SM CLR 19/13 A3008 RMK AO2 SLP185 T01850125
KBAZ 
12nm NW 
261651Z VRB03KT 10SM CLR 19/12 A3004 RMK AO2 SLP167 T01940122
KRND 
19nm W 
261656Z AUTO 32003KT 10SM CLR 18/12 A3004 RMK AO2 SLP169 T01800124
KHYI 
19nm N 
261656Z 34008KT 10SM CLR 19/13 A3005 RMK AO2 SLP169 T01890128
TAF
NOTAMs
Click for the latest NOTAMs
NOTAMs are issued by the DoD/FAA and will open in a separate window not controlled by AirNav.

 

 
 

Would you like to see your business listed on this page?

 If your business provides an interesting product or service to pilots, flight crews, aircraft, or users of the Randolph Air Force Base Auxiliary Field, you should consider listing it here.  To start the listing process, click on the button below
 
Add a business
 

Other Pages about Randolph Air Force Base Auxiliary Field

Update a link
 
Copyright © AirNav, LLC. All rights reserved. Privacy Policy  Contact